Regional Weather Roundup
Issued by NWS

Home | Current Version | Previous Version | Text Only | Print | Product List | Glossary Off
Versions: 1 2 3 4 5 6 7 8 9 10 11 12 13 14 15 16 17 18 19 20 21 22 23 24 25 26 27 28 29 30 31 32 33 34 35 36 37 38 39 40 41 42 43 44 45 46 47 48 49 50

000
ASUS43 KOAX 160010
RWRNE

WEATHER ROUNDUP FOR NEBRASKA
NATIONAL WEATHER SERVICE OMAHA NE
600 PM CST MON JAN 15 2018

NOTES: SATELLITE DATA IS BEING USED TO AUGMENT CLOUD COVER ABOVE
       12000 FEET.
       "FAIR" INDICATES FEW OR NO CLOUDS BELOW 12,000 FEET WITH NO
       SIGNIFICANT WEATHER AND/OR OBSTRUCTIONS TO VISIBILITY.


NEZ001>004-019>022-054>056-160100-
NEBRASKA PANHANDLE

CITY           SKY/WX    TMP DP  RH WIND       PRES   REMARKS
SCOTTSBLUFF    CLEAR      9  -2  61 N12       30.58R WCI  -6
6HR MIN TEMP:   9; 6HR MAX TEMP:  14;

ALLIANCE       CLEAR      1  -5  75 N9        30.57S WCI -14
6HR MIN TEMP:   1; 6HR MAX TEMP:   4;

CHADRON        CLOUDY     5  -5  63 NE7       30.67R WCI  -7
6HR MIN TEMP:   3; 6HR MAX TEMP:   9;

GORDON         FAIR      -1  -8  72 N7        30.62R WCI -15
6HR MIN TEMP:  -1; 6HR MAX TEMP:   4;

KIMBALL        CLEAR     10  -1  61 NW16      30.50R WCI  -7
SIDNEY         CLEAR      5  -2  72 N12       30.54R WCI -11
6HR MIN TEMP:   5; 6HR MAX TEMP:  11;

$$

NEZ057>060-069>072-079>082-160100-
SOUTHWEST NEBRASKA

CITY           SKY/WX    TMP DP  RH WIND       PRES   REMARKS
NORTH PLATTE   CLEAR      4  -7  60 NW13      30.64R WCI -13
6HR MIN TEMP:   4; 6HR MAX TEMP:   9;

IMPERIAL       CLEAR      7  -3  64 N20G25    30.61R WCI -13
6HR MIN TEMP:   7; 6HR MAX TEMP:  14;

LEXINGTON      CLEAR      6  -4  62 NW21      30.63R WCI -15
MCCOOK         CLEAR      7  -4  60 N15       30.64R WCI -10
6HR MIN TEMP:   7; 6HR MAX TEMP:  12;

OGALLALA       CLEAR      8  -3  61 NW13      30.63R WCI  -8
$$

NEZ005>010-023>029-035>040-094-160100-
NORTH CENTRAL NEBRASKA

CITY           SKY/WX    TMP DP  RH WIND       PRES   REMARKS
VALENTINE      CLEAR      1  -8  66 NW17G26   30.66R WCI -19
6HR MIN TEMP:  -1; 6HR MAX TEMP:   3;

AINSWORTH      CLOUDY     1  -6  70 NW22G28   30.64R WCI -21
BROKEN BOW     PTCLDY     3  -8  60 NW12G22   30.61R WCI -13
6HR MIN TEMP:   2; 6HR MAX TEMP:   5;

O`NEILL        CLOUDY     1  -5  76 NW21      30.64R WCI -22
ORD            MOCLDY     2  -7  66 NW17G26   30.63R WCI -18
6HR MIN TEMP:   2; 6HR MAX TEMP:   5;

THEDFORD       CLEAR      2  -6  68 NW16G22   30.62R WCI -17
$$

NEZ041-046>049-061>064-073>077-083>087-160100-
SOUTH CENTRAL NEBRASKA

CITY           SKY/WX    TMP DP  RH WIND       PRES   REMARKS
GRAND ISLAND   CLEAR      2  -6  69 N16       30.63R WCI -18
6HR MIN TEMP:   2; 6HR MAX TEMP:   7;

AURORA         PTCLDY     3  -6  66 NW17G31   30.62R WCI -17
HASTINGS       PTCLDY     3  -7  63 N18       30.63R WCI -17
6HR MIN TEMP:   3; 6HR MAX TEMP:   7;

HEBRON         PTCLDY     6  -4  63 NW14G25   30.66R WCI -10
HOLDREGE       CLEAR      5  -3  68 NW14G21   30.62R WCI -12
KEARNEY        CLEAR      3  -6  66 N18       30.63R WCI -17
YORK           PTCLDY     1  -4  78 NW17G26   30.62R WCI -19
$$

NEZ011>018-030>034-042>045-160100-
NORTHEAST NEBRASKA

CITY           SKY/WX    TMP DP  RH WIND       PRES   REMARKS
NORFOLK        CLEAR     -2  -9  72 N15G31    30.62R WCI -22
6HR MIN TEMP:  -2; 6HR MAX TEMP:   4; 6HR PCP: TRACE;

ALBION         CLOUDY     2  -4  73 N18G24    30.62R WCI -18
BLAIR          CLEAR     -1  -9  66 NW18G26   30.60S WCI -22
COLUMBUS       CLEAR      0  -8  69 NW22G28   30.65S WCI -23
FREMONT        CLEAR      0  -8  67 NW20      30.64F WCI -22
TEKAMAH        CLEAR     -1 -10  65 NW20      30.66S WCI -23
6HR MIN TEMP:  -1; 6HR MAX TEMP:   4; 6HR PCP: TRACE;

WAYNE          CLEAR     -3 -12  65 NW15G24   30.63S WCI -23
$$

NEZ050>053-065>068-078-088>093-160100-
SOUTHEAST NEBRASKA

CITY           SKY/WX    TMP DP  RH WIND       PRES   REMARKS
LINCOLN        PTCLDY     4  -8  57 NW17      30.67R WCI -16
6HR MIN TEMP:   4; 6HR MAX TEMP:  10; 6HR PCP: TRACE;

OMAHA EPPLEY   PTCLDY     0 -10  63 NW21G29   30.65R WCI -22
6HR MIN TEMP:   0; 6HR MAX TEMP:   6;

BEATRICE       MOCLDY     6  -3  67 NW23G29   30.65R WCI -15
FALLS CITY     PTCLDY     4  -5  66 NW15G24   30.63R WCI -14
6HR MIN TEMP:   4; 6HR MAX TEMP:   8;

NEBRASKA CITY  MOCLDY     2  -6  68 N17G24    30.63R WCI -17
PLATTSMOUTH    PTCLDY     1  -8  66 NW20G29   30.62R WCI -21
$$

NEZ044-045-051>053-067-160100-
OMAHA AREA

CITY           SKY/WX    TMP DP  RH WIND       PRES   REMARKS
OMAHA EPPLEY   PTCLDY     0 -10  63 NW21G29   30.65R WCI -22
6HR MIN TEMP:   0; 6HR MAX TEMP:   6;

BLAIR          CLEAR     -1  -9  66 NW18G26   30.60S WCI -22
FREMONT        CLEAR      0  -8  67 NW20      30.64F WCI -22
MILLARD        CLEAR      2  -8  60 NW15G23   30.65R WCI -16
OFFUTT AFB     CLEAR      0 -12  56 NW17G29   30.64R WCI -20
PLATTSMOUTH    PTCLDY     1  -8  66 NW20G29   30.62R WCI -21
WAHOO          FAIR       1  -9  62 MISG      30.63R
$$




USA.gov is the U.S. government's official web portal to all federal, state and local government web resources and services.